Location: ??????
(38.3184°N, 23.6932°E)
Time: 01:52:05
(UTC+00:00)

Cosmos 2322 Rocket - Pass Details

Date: 16 October 2021
Orbit: 832 x 851 km, 71.0° (Epoch: 04 December)

Event Time Altitude Azimuth Distance (km) Brightness Sun altitude
Rises 18:18:18 0° 203° (SSW) 3,362 5.4 -30.5°
Reaches altitude 10° 18:20:43 10° 205° (SSW) 2,431 4.7 -31.0°
Enters shadow 18:22:36 22° 207° (SSW) 1,737 3.9 -31.4°
